EW2910 Weather Reports


Display with metric or nautical units.
time (UTC)temp
F
wind
direction
speed
MPH
gust
MPH
rain 1hr
in
rain 24hr
in
rain mn
in
humidity
%
barometer
mb
20260509193059 95 266 4.0 12.0 0.00 0.00 0.00 47 1011.4
20260509191609 95 298 4.0 13.0 0.00 0.00 0.00 46 1011.6
20260509190100 94 176 3.0 16.0 0.00 0.00 0.00 48 1011.7
20260509184610 96 209 2.0 8.0 0.00 0.00 0.00 47 1011.9
20260509183101 95 227 8.0 17.0 0.00 0.00 0.00 48 1012.0
20260509181607 93 232 3.0 14.0 0.00 0.00 0.00 51 1012.1
20260509180115 94 257 6.0 11.0 0.00 0.00 0.00 49 1012.3
20260509174600 94 274 3.0 13.0 0.00 0.00 0.00 48 1012.4
20260509173107 94 219 5.0 12.0 0.00 0.00 0.00 47 1012.4
20260509171601 94 225 4.0 12.0 0.00 0.00 0.00 50 1012.7
20260509170106 93 288 3.0 11.0 0.00 0.00 0.00 55 1012.7
20260509164600 92 212 5.0 10.0 0.00 0.00 0.00 54 1013.0
20260509163104 91 243 3.0 11.0 0.00 0.00 0.00 56 1013.2
20260509161606 90 221 5.0 13.0 0.00 0.00 0.00 55 1013.2
20260509154559 89 226 3.0 8.0 0.00 0.00 0.00 61 1013.4
20260509153103 88 150 3.0 8.0 0.00 0.00 0.00 65 1013.6
20260509151557 87 0 3.0 7.0 0.00 0.00 0.00 68 1013.7
20260509150058 86 260 2.0 7.0 0.00 0.00 0.00 68 1013.8
20260509144557 84 224 3.0 9.0 0.00 0.00 0.00 74 1013.8
20260509143059 83 207 2.0 8.0 0.00 0.00 0.00 75 1013.9
20260509141557 81 189 0.0 6.0 0.00 0.00 0.00 78 1013.9
20260509140108 80 286 1.0 4.0 0.00 0.00 0.00 83 1013.7
20260509134556 79 96 0.0 4.0 0.00 0.00 0.00 83 1013.9
20260509133058 77 232 1.0 3.0 0.00 0.00 0.00 87 1014.0
20260509131559 75 123 2.0 5.0 0.00 0.00 0.00 91 1014.1
20260509130108 73 68 2.0 6.0 0.00 0.00 0.00 94 1014.1
20260509124559 73 15 3.0 6.0 0.00 0.00 0.00 95 1014.2
20260509123057 73 49 2.0 3.0 0.00 0.00 0.00 95 1014.0
20260509121601 73 12 2.0 4.0 0.00 0.00 0.00 96 1014.0
20260509120058 73 8 0.0 3.0 0.00 0.00 0.00 96 1013.9
20260509114559 72 0 0.0 0.0 0.00 0.00 0.00 96 1013.5
20260509113058 71 0 0.0 0.0 0.00 0.00 0.00 96 1013.3
20260509111559 71 0 0.0 0.0 0.00 0.00 0.00 96 1013.0
20260509110057 70 0 0.0 0.0 0.00 0.00 0.00 96 1012.9
20260509104603 70 0 0.0 0.0 0.00 0.00 0.00 96 1012.5
20260509103106 70 0 0.0 0.0 0.00 0.00 0.00 96 1012.5
20260509101620 70 0 0.0 0.0 0.00 0.00 0.00 96 1012.7
20260509094602 70 0 0.0 0.0 0.00 0.00 0.00 96 1012.4
20260509093100 70 0 0.0 0.0 0.00 0.00 0.00 96 1012.6
20260509091559 71 0 0.0 0.0 0.00 0.00 0.00 95 1012.7
20260509090108 71 0 0.0 0.0 0.00 0.00 0.00 95 1012.7
20260509084605 71 0 0.0 0.0 0.00 0.00 0.00 95 1012.7
20260509083111 72 0 0.0 4.0 0.00 0.00 0.00 95 1012.9
20260509081559 72 0 0.0 1.0 0.00 0.00 0.00 95 1013.0
20260509080100 72 0 0.0 0.0 0.00 0.00 0.00 94 1013.0
20260509074612 72 251 0.0 1.0 0.00 0.00 0.00 94 1012.9
20260509073108 72 0 0.0 2.0 0.00 0.00 0.00 94 1012.9
20260509071602 72 288 1.0 3.0 0.00 0.00 0.00 94 1013.0
20260509070059 72 0 0.0 2.0 0.00 0.00 0.00 93 1013.4
20260509064601 73 0 0.0 1.0 0.00 0.00 0.00 93 1013.6
20260509063104 73 0 0.0 0.0 0.00 0.00 0.00 92 1013.5
20260509061558 73 0 0.0 2.0 0.00 0.00 0.00 92 1013.8
20260509060117 73 0 0.0 1.0 0.00 0.00 0.00 92 1014.0
20260509054556 73 0 0.0 0.0 0.00 0.00 0.00 92 1014.2
20260509053114 74 0 0.0 2.0 0.00 0.00 0.00 91 1014.2
20260509051609 74 0 0.0 3.0 0.00 0.00 0.00 91 1014.4
20260509050106 75 0 0.0 0.0 0.00 0.00 0.00 92 1014.5
20260509044604 75 0 0.0 3.0 0.00 0.00 0.00 92 1014.5
20260509043100 76 334 1.0 4.0 0.00 0.00 0.00 91 1014.6
20260509041558 76 345 1.0 4.0 0.00 0.00 0.00 91 1014.6
20260509040109 76 20 3.0 5.0 0.00 0.00 0.00 90 1014.7
20260509034603 76 326 1.0 6.0 0.00 0.00 0.00 90 1014.6
20260509033131 77 347 4.0 8.0 0.00 0.00 0.00 89 1014.6
20260509031558 77 20 4.0 8.0 0.00 0.00 0.00 88 1014.6
20260509030059 78 23 3.0 8.0 0.00 0.00 0.00 87 1014.5
20260509024607 79 4 3.0 6.0 0.00 0.00 0.00 85 1014.5
20260509023057 80 26 4.0 12.0 0.00 0.00 0.00 82 1014.5
20260509021600 80 329 5.0 10.0 0.00 0.00 0.00 77 1014.2
20260509020111 81 327 6.0 11.0 0.00 0.00 0.00 74 1014.0
20260509014602 82 348 5.0 9.0 0.00 0.00 0.00 71 1014.1
20260509013106 82 349 1.0 6.0 0.00 0.00 0.00 68 1014.0
20260509011604 83 319 2.0 6.0 0.00 0.00 0.00 68 1013.7
20260509010100 83 298 3.0 7.0 0.00 0.00 0.00 67 1013.4
20260509004600 84 266 3.0 8.0 0.00 0.00 0.00 65 1013.0
20260509003103 85 232 3.0 6.0 0.00 0.00 0.00 63 1012.9
20260509001558 87 292 3.0 8.0 0.00 0.00 0.00 62 1012.4
20260509000104 88 333 0.0 3.0 0.00 0.00 0.00 60 1012.2
20260508234604 89 0 0.0 2.0 0.00 0.00 0.00 59 1011.7
20260508233119 90 0 0.0 3.0 0.00 0.00 0.00 58 1011.7
20260508231603 91 236 0.0 2.0 0.00 0.00 0.00 53 1011.4
20260508230058 92 0 0.0 3.0 0.00 0.00 0.00 52 1011.2
20260508224558 92 0 0.0 4.0 0.00 0.00 0.00 52 1011.2
20260508223100 93 0 0.0 5.0 0.00 0.00 0.00 50 1011.1
20260508221600 95 0 1.0 6.0 0.00 0.00 0.00 48 1011.0
20260508214557 95 332 1.0 6.0 0.00 0.00 0.00 49 1011.0
20260508213100 95 207 0.0 2.0 0.00 0.00 0.00 50 1011.0
20260508211600 94 218 1.0 7.0 0.00 0.00 0.00 52 1011.1
20260508210101 94 0 0.0 5.0 0.00 0.00 0.00 51 1011.1
20260508204600 95 181 0.0 6.0 0.00 0.00 0.00 51 1011.3
20260508203058 95 228 2.0 6.0 0.00 0.00 0.00 50 1011.4
20260508201559 95 102 1.0 8.0 0.00 0.00 0.00 52 1011.8
20260508200100 94 111 1.0 5.0 0.00 0.00 0.00 53 1011.9
20260508194609 93 318 0.0 7.0 0.00 0.00 0.00 53 1012.1